INTELSAT 37E (IS-37E) (42950 NORAD) Tracking and Keplerian Element Data

This shows tracking and keplerian element data for the satellite.

Feedback or suggestion? Click here.




ElementValue
Catalog42950
NameINTELSAT 37E (IS-37E)
Epoch Orbit1469
Epoch Day261.86461454
Epoch Year2021
RAAN156.0965
Inclination0.017
Eccentricity0.0002924
Argument of Perigee23.5765
Mean Anonmoly111.5843
Mean Motion1.00271814
Decay Rate-1.64E-06
L11 42950U 17059A 21261.86461454 -.00000164 00000-0 00000-0 0 9994
L22 42950 0.0170 156.0965 0002924 23.5765 111.5843 1.00271814 14694

Live tracking and technical data element details for INTELSAT 37E (IS-37E) (NORAD 42950). INTELSAT 37E (IS-37E) can be tracked NOW for your location showing map with azimuth and elevation plus other details from your city location.

Track the satellite on the map from your city or location and see movement details for azimuth, elevation, latitude, longitude, range, height, and movement on the map or in text.







IsCatalogInMostPopularTable: catalog: 42950, numindb: 1041
Update: records affected: 1



GetName: 42950 INTELSAT 37E (IS-37E)

Hit Count: updated at: Sun, 26 Sep 2021 00:21:12 GMT